sat.trackr.live / text

‹ back to catalog

STARLINK-32748

NORAD 62524 · 2025-004P

PAYLOAD ACTIVE UNKNOWN

§ Identity

Operator
Country
US
Launch date
2025-01-08
Launch site
AFETR
Launch vehicle
Mass (kg)
RCS (m²)

Purposes: comms

External: N2YO · Heavens-Above · Gunter

§ Orbital elements

Epoch: 2026-09-21T05:08:57.038784Z

Period
94.27 min
Inclination
43.0062°
Eccentricity
0.0003763
Mean motion
15.27601610 rev/d
Perigee alt
480.4 km
Apogee alt
485.6 km
Semi-major
6,861.1 km
B*
4.4277e-4
RAAN
195.4747°
Arg perigee
257.1968°
Mean anomaly
102.8463°
Rev number
9,636

§ Raw data

STARLINK-327481 62524U 25004P   26264.21454906  .00011951  00000+0  44277-3 0  99942 62524  43.0062 195.4747 0003763 257.1968 102.8463 15.27601610 96367

JSON: /api/v1/satellites/62524 · /tle

For live sub-satellite position, see the globe view (requires WebGL).

§ Visibility from observer

Set your observer location to see the next 7 days of passes ≥ 10°. The values pass through the URL so the page stays shareable.

No JS? Fill the form by hand. The geolocation button needs JavaScript.